Notices

What's New in latest Release from April 7th, 2021:

- Updated Glossary, including Speed of Maximum Gust, and Total Hourly Precipitation

- Updated national and regional climate services offices contacts and prices information

- Addition of station inventory lists for 1981-2010, 1971-2000, and 1961-1990 Normals.

If you haven't already, please take our survey and provide feedback about our website: https://eccc.sondage-survey.ca/f/LanguageSelection.aspx?s=442ca660-fcf1-47c0-95a9-59707d6fd709

Hourly Data Report for August 05, 2019

TORONTO CITY
ONTARIO
Current Station Operator: ECCC - MSC

43°40'00.000" N
79°24'00.000" W
112.50 m
6158355
71508
XTO

Download Data

Hourly Data (August 2019)
Hourly Data Report for August 5, 2019
TIME
LST
Temp Definition
°C
Dew Point Definition
°C
Rel Hum Definition
%
Precip. Amount Definition
mm

Wind Dir Definition
10's deg

Wind Spd Definition
km/h
Visibility Definition
km
Stn Press Definition
kPa
Hmdx Definition


Wind Chill Definition


Weather Definition


00:00 19.1 7.2 46 0.0       100.26     LegendNANA
01:00 19.2 7.5 46 0.0       100.23     LegendNANA
02:00 19.5 8.4 48 0.0       100.22     LegendNANA
03:00 18.6 9.0 54 0.0       100.21     LegendNANA
04:00 17.8 9.0 56 0.0       100.20     LegendNANA
05:00 17.5 9.4 59 0.0       100.20     LegendNANA
06:00 17.1 10.3 64 0.0       100.19     LegendNANA
07:00 19.2 10.9 58 0.0       100.19     LegendNANA
08:00 22.5 10.1 45 0.0       100.20     LegendNANA
09:00 23.8 12.8 50 0.0       100.21 26   LegendNANA
10:00 24.8 12.6 47 0.0       100.20 27   LegendNANA
11:00 25.4 14.6 51 0.0       100.16 29   LegendNANA
12:00 26.4 14.4 48 0.0       100.12 30   LegendNANA
13:00 27.2 13.7 43 0.0       100.06 30   LegendNANA
14:00 28.0 14.9 45 0.0       100.00 32   LegendNANA
15:00 27.3 13.4 42 0.0       99.91 30   LegendNANA
16:00 27.6 14.4 45 0.0       99.86 31   LegendNANA
17:00 27.0 15.5 50 0.0       99.79 31   LegendNANA
18:00 26.9 15.2 49 0.0       99.72 31   LegendNANA
19:00 26.1 15.7 53 0.0       99.70 31   LegendNANA
20:00 24.4 16.5 61 0.0       99.69 29   LegendNANA
21:00 23.6 16.8 66 0.0       99.74 29   LegendNANA
22:00 23.3 17.3 69 0.0       99.72 29   LegendNANA
23:00 23.1 16.8 68 0.0       99.70 28   LegendNANA

Notes on Data Quality.

Legend

  • E = Estimated
  • M = Missing
  • NA = Not Available*
  • [empty] = Indicates an unobserved value
Date modified: